Location: Unspecified
(29.3780°N, 0.0000°E)
Time: 04:14:03
(UTC+00:00)

CZ-4C R/B - Visible Passes

Search period start: 04 April 2026 00:00
Search period end: 14 April 2026 00:00
Orbit: 608 x 1392 km, 63.4° (Epoch: 29 March)

Date Brightness Start Highest point End Pass type
(mag) Time Alt. Az. Time Alt. Az. Time Alt. Az.
4 Apr ? 00:52:29 10° NNW 00:53:03 12° N 00:53:03 12° N visible
4 Apr ? 23:38:50 10° N 23:39:43 12° NNE 23:39:43 12° NNE visible
6 Apr ? 00:10:35 10° N 00:11:35 14° N 00:11:35 14° N visible
6 Apr ? 22:57:25 10° NNE 22:58:22 12° NNE 22:58:22 12° NNE visible
7 Apr ? 00:43:10 10° NNW 00:43:30 11° NNW 00:43:30 11° NNW visible
7 Apr ? 23:28:43 10° N 23:30:19 16° N 23:30:19 16° N visible
8 Apr ? 22:16:28 10° NNE 22:17:10 11° NNE 22:17:10 11° NNE visible
9 Apr ? 00:01:08 10° NNW 00:02:19 15° NNW 00:02:19 15° NNW visible
9 Apr ? 22:46:56 10° N 22:49:12 17° NNE 22:49:12 17° NNE visible
10 Apr ? 00:34:10 10° NNW 00:34:21 11° NNW 00:34:21 11° NNW visible
10 Apr ? 23:19:08 10° NNW 23:21:16 20° N 23:21:16 20° N visible
11 Apr ? 22:05:14 10° N 22:08:13 18° NNE 22:08:13 18° NNE visible
11 Apr ? 23:52:00 10° NNW 23:53:22 17° NNW 23:53:22 17° NNW visible
12 Apr ? 22:37:11 10° NNW 22:40:21 25° N 22:40:21 25° N visible
13 Apr ? 21:23:40 10° N 21:27:22 16° NE 21:27:22 16° NE visible
13 Apr ? 23:09:53 10° NNW 23:12:30 24° NNW 23:12:30 24° NNW visible
